User: anonymous   Login
Location: Burbank
(38.7788°N, 114.0429°W)
Time: 01:40:32
(UTC+00:00)
Language:

Explorer 11/Cluster Stage 4 - Orbit

View from above orbital plane
View from above orbital plane
View from above satellite
View from above satellite

Ground track
Ground track

The orbit is defined by the following mean orbital elements,

1 00107U          26133.35802421 +.00000000 +00000-0 +12591-3 0 00002
2 00107  28.7758 157.2430 0494118 163.0363 198.7384 14.21986862    05
Epoch (UTC): 13 May 2026 08:35:33
Eccentricity: 0.0494118
inclination: 28.7758°
perigee height: 463 km
apogee height: 1174 km
right ascension of ascending node: 157.2430°
argument of perigee: 163.0363°
revolutions per day: 14.21986862
mean anomaly at epoch: 198.7384°

The dashed part of the orbit path shows where the satellite is in the earth's shadow,  

DLR